FW5335 Weather Reports


Display with metric or nautical units.
time (UTC)temp
F
wind
direction
speed
MPH
gust
MPH
rain 1hr
in
rain 24hr
in
rain mn
in
humidity
%
barometer
mb
20260504031541 52 0.0 0.0 0.00 0.00 0.00 91 1012.9
20260504030516 52 0.0 1.0 0.00 0.00 0.00 91 1013.0
20260504025518 52 203 1.0 3.0 0.00 0.00 0.00 91 1013.1
20260504024523 52 0.0 0.0 0.00 0.00 0.00 90 1013.0
20260504023518 52 0.0 0.0 0.00 0.00 0.00 91 1012.9
20260504022520 52 0.0 0.0 0.00 0.00 0.00 90 1012.9
20260504021519 52 0.0 0.0 0.00 0.00 0.00 90 1013.0
20260504020519 52 0.0 0.0 0.00 0.00 0.00 90 1013.0
20260504015519 52 0.0 0.0 0.00 0.00 0.00 90 1013.0
20260504014528 52 0.0 0.0 0.00 0.00 0.00 90 1012.9
20260504013523 52 0.0 0.0 0.00 0.00 0.00 90 1012.9
20260504012530 52 0.0 0.0 0.00 0.00 0.00 89 1012.8
20260504011519 52 0.0 0.0 0.00 0.00 0.00 89 1012.7
20260504010523 52 0.0 0.0 0.00 0.00 0.00 89 1012.7
20260504005518 53 203 1.0 2.0 0.00 0.00 0.00 89 1012.7
20260504004518 53 203 1.0 3.0 0.00 0.00 0.00 89 1012.7
20260504003524 53 203 1.0 2.0 0.00 0.00 0.00 89 1012.6
20260504002518 53 203 1.0 2.0 0.00 0.01 0.00 89 1012.7
20260504001529 53 203 1.0 3.0 0.00 0.01 0.00 89 1012.7
20260504000519 53 203 1.0 2.0 0.00 0.01 0.00 89 1012.7
20260503235519 53 203 1.0 3.0 0.00 0.01 0.00 89 1012.7
20260503234519 53 203 1.0 2.0 0.00 0.01 0.00 89 1012.8
20260503233518 53 0.0 2.0 0.00 0.01 0.00 89 1012.8
20260503232519 53 203 1.0 2.0 0.00 0.01 0.00 89 1012.8
20260503231538 53 203 1.0 5.0 0.00 0.01 0.00 89 1012.8
20260503230540 53 203 3.0 5.0 0.00 0.01 0.00 90 1012.8
20260503225519 53 180 3.0 5.0 0.00 0.01 0.01 90 1012.8
20260503224518 52 225 2.0 7.0 0.00 0.01 0.01 90 1012.6
20260503223520 52 0.0 0.0 0.00 0.01 0.01 89 1012.6
20260503222540 52 0.0 0.0 0.00 0.01 0.01 89 1012.6
20260503221521 52 225 1.0 2.0 0.00 0.01 0.01 89 1012.5
20260503220520 52 225 1.0 3.0 0.00 0.01 0.01 89 1012.3
20260503215519 52 270 2.0 4.0 0.00 0.01 0.01 89 1012.3
20260503214524 52 0.0 0.0 0.00 0.01 0.01 88 1012.3
20260503213541 52 0.0 2.0 0.00 0.01 0.01 88 1012.1
20260503212524 52 0.0 2.0 0.00 0.01 0.01 88 1012.0
20260503211524 52 0.0 1.0 0.00 0.01 0.01 88 1011.9
20260503210520 52 270 1.0 2.0 0.00 0.01 0.01 88 1011.9
20260503205520 52 0.0 2.0 0.00 0.01 0.01 87 1011.8
20260503204526 52 270 1.0 4.0 0.00 0.01 0.01 87 1011.8
20260503203544 52 270 1.0 3.0 0.00 0.01 0.01 87 1011.8
20260503202520 53 225 1.0 2.0 0.00 0.01 0.01 86 1011.7
20260503201519 53 225 2.0 5.0 0.00 0.01 0.01 85 1011.4
20260503200519 54 225 3.0 7.0 0.00 0.01 0.01 85 1011.3
20260503195543 54 225 2.0 4.0 0.00 0.01 0.01 84 1011.2
20260503194539 55 225 2.0 4.0 0.00 0.01 0.01 84 1011.2
20260503193519 55 203 2.0 4.0 0.00 0.01 0.01 83 1011.0
20260503192519 56 225 3.0 5.0 0.00 0.02 0.01 82 1010.9
20260503191519 57 225 2.0 4.0 0.00 0.02 0.01 81 1010.6
20260503190534 57 0.0 3.0 0.00 0.02 0.01 80 1010.8
20260503185546 58 0.0 1.0 0.00 0.02 0.01 79 1010.7
20260503184526 58 225 2.0 3.0 0.00 0.02 0.01 78 1010.6
20260503183521 59 225 3.0 4.0 0.00 0.03 0.01 78 1010.7
20260503182519 59 203 3.0 6.0 0.00 0.04 0.01 77 1010.4
20260503181519 60 225 4.0 6.0 0.00 0.04 0.01 77 1010.6
20260503180520 59 225 3.0 5.0 0.00 0.04 0.01 78 1010.6
20260503175539 59 203 3.0 5.0 0.00 0.05 0.01 77 1010.5
20260503174519 59 180 2.0 4.0 0.00 0.06 0.01 77 1010.4
20260503173520 59 180 2.0 5.0 0.00 0.06 0.01 77 1010.6
20260503172519 59 180 3.0 5.0 0.00 0.07 0.01 78 1010.5
20260503171519 59 203 5.0 7.0 0.00 0.09 0.01 77 1010.4
20260503170520 59 203 6.0 10.0 0.00 0.10 0.01 76 1010.3
20260503150519 62 225 6.0 10.0 0.00 0.46 0.01 77 1010.6
20260503130517 60 203 3.0 6.0 0.00 0.72 0.01 74 1010.8
20260503110517 62 90 2.0 5.0 0.00 0.72 0.01 78 1011.1
20260503081517 54 113 2.0 4.0 0.00 0.72 0.01 90 1011.2
20260503080518 55 135 2.0 5.0 0.00 0.72 0.01 91 1011.3
20260503072518 54 68 2.0 4.0 0.00 0.72 0.01 93 1011.2
20260503071518 55 68 2.0 5.0 0.00 0.72 0.01 95 1011.2
20260503070518 54 90 2.0 5.0 0.00 0.72 0.01 95 1011.1
20260503054518 51 0.0 0.0 0.00 0.72 0.01 94 1010.7
20260503053518 51 0.0 0.0 0.00 0.72 0.01 93 1010.8
20260503052518 51 0.0 0.0 0.00 0.72 0.01 93 1010.6
20260503051518 51 0.0 0.0 0.00 0.72 0.01 93 1010.7
20260503050518 51 248 1.0 2.0 0.00 0.72 0.01 93 1010.6
20260503045518 51 248 1.0 2.0 0.00 0.72 0.01 93 1010.3
20260503044654 51 0.0 2.0 0.00 0.72 0.01 93 1010.3
20260503043543 51 248 2.0 3.0 0.00 0.72 0.01 93 1010.3
20260503042518 51 248 1.0 3.0 0.00 0.72 0.01 93 1010.4
20260503041518 51 0.0 2.0 0.00 0.72 0.01 93 1010.5
20260503040520 52 248 1.0 2.0 0.00 0.72 0.01 93 1010.5
20260503035524 52 270 2.0 3.0 0.00 0.72 0.01 93 1010.5
20260503034518 52 248 1.0 4.0 0.00 0.72 0.01 93 1010.6
20260503033540 52 248 1.0 2.0 0.00 0.72 0.01 93 1010.7
20260503032539 52 248 2.0 3.0 0.00 0.72 0.01 93 1010.8